Regional Weather Roundup
Issued by NWS

Home | Current Version | Previous Version | Text Only | Print | Product List | Glossary Off
Versions: 1 2 3 4 5 6 7 8 9 10 11 12 13 14 15 16 17 18 19 20 21 22 23 24 25 26 27 28 29 30 31 32 33 34 35 36 37 38 39 40 41 42 43 44 45 46 47 48 49 50

000
ASUS43 KFSD 241910
RWRSD

WEATHER ROUNDUP FOR SOUTH DAKOTA
NATIONAL WEATHER SERVICE SIOUX FALLS SD
200 PM CDT SAT JUN 24 2017

NOTE: "FAIR" INDICATES FEW OR NO CLOUDS BELOW 12,000 FEET WITH NO
SIGNIFICANT WEATHER AND/OR OBSTRUCTIONS TO VISIBILITY.


SDZ001>005-009-010-012>017-242000-
NORTHWEST AND NORTH CENTRAL SOUTH DAKOTA

CITY           SKY/WX    TMP DP  RH WIND       PRES   REMARKS
BUFFALO          N/A     70  34  26 N20G31    30.21S
FAITH            N/A     70  35  27 NW24G35   30.24S
MOBRIDGE       MOSUNNY   68  36  30 NW20G32   30.17R
$$

SDZ012>016-024>037-041>051-057-063-072>074-242000-
SOUTHWEST AND SOUTH CENTRAL SOUTH DAKOTA

CITY           SKY/WX    TMP DP  RH WIND       PRES   REMARKS
RAPID CTY ARPT MOSUNNY   72  31  22 NW21G33   30.27S
PIERRE         MOSUNNY   70  37  29 NW24G36   30.18F
CUSTER         PTSUNNY   62  28  27 NW13      30.35S
ELLSWORTH AFB  MOSUNNY   72  32  23 NW20G28   30.27
PHILIP         MOSUNNY   74  34  23 NW16G31   30.22S
PINE RIDGE     CLOUDY    68  38  33 NW7       30.31R
SPEARFISH      FAIR      66  34  30 NW15G22   30.31F
WINNER         MOCLDY    79  35  20 NW21G37   30.20S
$$

SDZ004>011-016>023-039-040-242000-
NORTHEAST SOUTH DAKOTA

CITY           SKY/WX    TMP DP  RH WIND       PRES   REMARKS
ABERDEEN       CLOUDY    62  41  46 NW23G31   30.15R
WATERTOWN      CLOUDY    62  41  46 NW17G26   30.12R
BROOKINGS      PTSUNNY   62  42  47 NW22      30.12R
SISSETON         N/A     66  42  41 NW21G30   30.08S
$$

SDZ017-020-022-023-036>040-048>070-242000-
SOUTHEAST SOUTH DAKOTA

CITY           SKY/WX    TMP DP  RH WIND       PRES   REMARKS
SIOUX FALLS    MOSUNNY   70  43  37 NW24G35   30.11R
HURON          MOSUNNY   68  41  37 NW21G33   30.14R
CHAMBERLAIN    MOSUNNY   74  41  30 W24G31    30.19S
MITCHELL       MOSUNNY   74  36  25 NW32G45   30.14S
YANKTON        MOSUNNY   74  38  27 NW30G37   30.14S
$$

ABBREVIATIONS USED IN REMARKS
   TC - TEMPERATURE IN CELSIUS
  WCI - WIND CHILL INDEX
   HX - HEAT INDEX
  VSB - VISIBILITY





USA.gov is the U.S. government's official web portal to all federal, state and local government web resources and services.